Regional Weather Roundup
Issued by NWS

Home | Current Version | Previous Version | Graphics & Text | Print | Product List | Glossary On
Versions: 1 2 3 4 5 6 7 8 9 10 11 12 13 14 15 16 17 18 19 20 21 22 23 24 25 26 27 28 29 30 31 32 33 34 35 36 37 38 39 40 41 42 43 44 45 46 47 48 49 50
000
ASUS43 KLOT 261003
RWRIL

ILLINOIS REGIONAL WEATHER ROUNDUP
NATIONAL WEATHER SERVICE CHICAGO/ROMEOVILLE IL
400 AM CST SUN FEB 26 2017

NOTE: "FAIR" INDICATES FEW OR NO CLOUDS BELOW 12,000 FEET WITH NO
SIGNIFICANT WEATHER AND/OR OBSTRUCTIONS TO VISIBILITY.

* THESE STATIONS ARE NOT UNDER NWS QUALITY CONTROL. THEY ALSO MAY NOT
  REPORT WEATHER SUCH AS PRECIPITATION OR FOG.

ILZ001-002-007-009-015-016-024-261100-
NORTHWEST ILLINOIS

CITY           SKY/WX    TMP DP  RH WIND       PRES   REMARKS
MOLINE         CLOUDY    30  16  56 S13       29.97F WCI  20
STERLING*      CLOUDY    26  21  81 S7        30.00F WCI  18
$$

ILZ003-004-008-010-011-017-018-261100-
NORTH CENTRAL ILLINOIS

CITY           SKY/WX    TMP DP  RH WIND       PRES   REMARKS
ROCKFORD       CLOUDY    25  19  78 S8        29.99F WCI  16
FREEPORT*      CLOUDY    25  20  80 S9        29.97F WCI  16
ROCHELLE*      CLOUDY    24  20  86 S8        30.00F WCI  15
DE KALB*       CLOUDY    23  21  92 S10       30.00R WCI  12
PERU*          PTCLDY    23  17  78 S6        30.04S WCI  16
$$

ILZ005-006-012>014-019>023-261100-
NORTHEAST ILLINOIS

CITY           SKY/WX    TMP DP  RH WIND       PRES   REMARKS
CHICAGO-OHARE  CLOUDY    25  19  78 S5        30.01F WCI  19
CHICAGO-MIDWAY CLOUDY    25  17  72 SE9       30.03F WCI  15
AURORA         MOCLDY    24  19  81 S8        30.02F WCI  15
LANSING*       CLOUDY    22  20  93 S6        30.06F WCI  15
JOLIET*        CLEAR     25  21  85 SE5       30.05S WCI  19
WAUKEGAN       CLOUDY    23  18  81 S6        30.00F WCI  16
DUPAGE AIRPORT CLOUDY    22  17  81 S6        30.00F WCI  14
KANKAKEE*      PTCLDY    21  18  85 CALM      30.09R
WHEELING       CLOUDY    24  17  74 S7        30.02F WCI  16
MORRIS*        CLEAR     23  19  87 S5        30.04R WCI  17
ROMEOVILLE*    MOCLDY    22  20  92 S8        30.03F WCI  13
NORTHERLY ISL    N/A     26  18  71 S6          N/A  WCI  20
$$

LMZ740>746-261100-
SOUTHERN LAKE MICHIGAN

STATION/POSITION SKY/WX   TEMP    WIND        PRES    VSBY  WAVE
                          AIR SEA DIR/SP/G                  HT/PER
                          (F)     (DEG/KT/KT) (MB)    (MI)  (FT/S)
HARRISON CRIB              28     190/ 11/ 12   N/A
BURNHAM HARBOR             25     160/  5/  7   N/A
CALUMET HARBOR             25     200/  5/  7 1017.3F
BURNS HARBOR               23     180/  8/ 11 1018.6S
MICHIGAN CITY              24     170/  9/ 11   N/A
$$

ILZ025>027-034>036-040-047-049-050-058-095>099-261100-
WEST-CENTRAL ILLINOIS

CITY           SKY/WX    TMP DP  RH WIND       PRES   REMARKS
QUINCY         CLOUDY    30  14  51 S10       30.02F WCI  21
GALESBURG*     CLOUDY    26  19  75 SE7       30.00F WCI  19
MACOMB*        CLOUDY    28  18  66 S12       30.04F WCI  18
JACKSONVILLE*  PTCLDY    27  15  59 S8        30.07R WCI  19
PITTSFIELD*    PTCLDY    28  17  61 S8        30.06F WCI  20
$$

ILZ028>032-037-038-041>044-048-051>054-059>061-261100-
CENTRAL ILLINOIS

CITY           SKY/WX    TMP DP  RH WIND       PRES   REMARKS
PONTIAC        CLOUDY    26  20  81 S5        30.06F WCI  20
BLOOMINGTON    CLEAR     20  16  84 S10       30.06F WCI   9
DECATUR        CLEAR     20  13  74 S3        30.09S
PEORIA         PTCLDY    24  15  68 S7        30.04F WCI  16
LACON*         MOCLDY    25  18  74 SE5       30.03F WCI  19
LINCOLN*       CLEAR     21  15  79 S5        30.08S WCI  15
SPRINGFIELD    CLEAR     24  14  65 S7        30.08S WCI  16
TAYLORVILLE    PTCLDY    20  13  73 S6        30.10S WCI  13
$$

ILZ033-039-045-046-055>057-062-063-261100-
EAST-CENTRAL ILLINOIS

CITY           SKY/WX    TMP DP  RH WIND       PRES   REMARKS
CHAMPAIGN      CLEAR     17  11  77 S5        30.09S WCI  10
RANTOUL*       CLEAR     21  18  86 S5        30.09S WCI  15
MATTOON        CLEAR     22  17  81 S3        30.11R
PARIS*         PTCLDY    20  17  86 CALM      30.12S
$$

ILZ079-100>102-261100-
SOUTHWEST ILLINOIS

CITY           SKY/WX    TMP DP  RH WIND       PRES   REMARKS
ALTON          CLEAR     20  15  81 SE5       30.11F WCI  14
BELLEVILLE     CLEAR     22  19  87 CALM      30.12S
CAHOKIA*       CLEAR     23  14  68 CALM      30.12F
SPARTA*        CLEAR     26  15  62 SE6       30.15S WCI  20
$$

ILZ064>066-069>071-074>076-080>082-084>086-088>090-092>094-261100-
SOUTH-CENTRAL ILLINOIS

CITY           SKY/WX    TMP DP  RH WIND       PRES   REMARKS
CARBONDALE     CLEAR     20  18  92 CALM      30.16S
CAIRO*         CLEAR     24  22  90 CALM      30.18S
EFFINGHAM*     CLEAR     22  20  91 E3        30.16R
MARION         CLEAR     25  18  74 CALM      30.17S
MT. VERNON     CLEAR     17  16  95 CALM      30.16R
CENTRALIA*     CLEAR     23  19  86 S5        30.13S WCI  17
SALEM*         PTCLDY    24  19  79 CALM      30.14R
METROPOLIS*    CLEAR     22  21  93 CALM      30.19S
$$

ILZ067-068-072-073-078-083-087-091-261100-
SOUTHEAST ILLINOIS

CITY           SKY/WX    TMP DP  RH WIND       PRES   REMARKS
LAWRENCEVILLE  CLEAR     21  18  88 S6        30.17R WCI  13
FLORA*         PTCLDY    21  18  89 CALM      30.17R
FAIRFIELD*     CLEAR     21  19  89 CALM      30.16R
HARRISBURG*    CLEAR     24  22  93 CALM      30.19R
ROBINSON*      PTCLDY    19  16  90 CALM      30.16S
CARMI*         CLEAR     23  18  83 CALM      30.17R
$$

ABBREVIATIONS USED IN REMARKS
   TC - TEMPERATURE IN CELSIUS
  WCI - WIND CHILL INDEX
   HX - HEAT INDEX
  VSB - VISIBILITY
$$





USA.gov is the U.S. government's official web portal to all federal, state and local government web resources and services.